Volver al catálogo

LEMUR-2-DELOITTE-6

ActivoCienciaSSO
NORAD 69882·PAYLOAD·🇺🇸 United States

Lanzado Jul 7, 2026 desde Vandenberg Space Force Base

Loading…

Próximos Pases (próximas 24 horas)

TLE

ActualizadoSource: Space-Track

Época: Sep 14, 2026, 15:48 UTC

1 69882U 26156P   26257.65853413  .00001565  00000-0  16258-3 0  9992
2 69882  97.7488 156.9163 0002058 302.6499  57.4521 14.91338136 10337

Sigue LEMUR-2-DELOITTE-6 en tiempo real con AllMySat

Download on the App Store